Tracking 21045 objects as of 4-Aug-2020
HD Live streaming from Space Station
objects crossing your sky now

TITAN 3C TRANSTAGE DEB

Track TITAN 3C TRANSTAGE DEB now!
10-day predictions


NORAD ID: 1642
Int'l Code: 1965-082D
Perigee: 621.2 km
Apogee: 656.9 km
Inclination: 32.1 °
Period: 97.4 minutes
Semi major axis: 7010 km
RCS: 2.2943 m2 (large)
Launch date: October 15, 1965
Source: United States (US)
Launch site: AIR FORCE EASTERN TEST RANGE (AFETR)

Note: This is SATELLITE DEBRIS
aabbcc
Your satellite tracking list
Your tracking list is empty




NASA's NSSDC Master Catalog

Two Line Element Set (TLE):
1  1642U 65082D   20216.55511141  .00000135  00000-0  11709-4 0  9999
2  1642  32.0943 291.7131 0025516 184.5076 175.5346 14.79180290940768
Source of the keplerian elements: AFSPC